Other Public Products
Issued by NWS Charleston, SC

Current Version | Previous Version | Graphics & Text | Print | Product List | Glossary On
Versions: 1 2 3 4 5 6 7 8 9 10 11 12 13 14 15 16 17 18 19 20 21 22 23 24 25 26 27 28 29 30 31 32 33 34 35 36 37 38 39 40 41 42 43 44 45 46 47 48 49 50
796
FPUS82 KCHS 281412
OPUCHS

TEST...KCHS/KSAV Gateway Observations...TEST
National Weather Service Charleston SC
1000 AM EDT FRI APR 28 2017

NOTE: "fair" indicates few or no clouds below 12,000 feet with no
significant weather and/or obstructions to visibility.

SCZ050-WAZ558-NCZ071-TXZ119-213-PAZ071-DCZ001-FLZ074-172-MI076-
NYZ176-178-MAZ016-IL014-TNZ027-NJZ106-GAZ044-MD014-281500-

...Gateway Observations for Charleston International...

CITY           SKY/WX    TMP DP  RH WIND       PRES   REMARKS
Chas Airport   MOSUNNY   81  72  74 S8        30.08R
Seattle        MOCLDY    45  41  86 S3        30.31R
Charlotte      PTSUNNY   74  66  76 SW6       30.07R
Dallas DFW     CLOUDY    73  65  75 SW13      29.61R
Dallas Love    CLOUDY    73  64  73 SW7       29.62R
Philladelphia  MOSUNNY   73  61  65 SW8       30.00R
Wash National  SUNNY     76  61  59 N8        30.03S
Baltimore      MOSUNNY   75  59  57 W6        30.02R
Miami          MOSUNNY   84  71  65 E14       30.08R
Detroit        MOSUNNY   54  41  61 S12       30.01R
Newark         PTSUNNY   68  61  78 VRB6      29.98R
Laguardia      PTSUNNY   66  60  81 VRB5      29.98R HAZE
J F K          PTSUNNY   67  60  78 CALM      29.99R HAZE
Boston Logan   CLOUDY    61  59  93 SW8       29.94F
Ft. Lauderdale MOSUNNY   81  72  74 SE13      30.08R
Chicago O`Hare PTSUNNY   48  34  58 CALM      29.94S
Chicago Midway PTSUNNY   50  40  68 CALM      29.94S
Houston Bush   PTSUNNY   79  71  76 S21G28    29.68R
Houston Hobby  PTSUNNY   78  72  81 S15       29.68R
Nashville      CLOUDY    63  55  75 CALM      29.95R
Atlanta        CLOUDY    73  69  87 S8        30.04R

$$

GAZ044-118-TXZ119-213-NCZ071-DCZ001-MDZ014-506-PAZ021-071-NJZ106-
NYZ176-178-MAZ106-OHZ011-021-055-MIZ076-KYZ091-ILZ014-INZ047-
MNZ060-ONZ431-281500-

...Gateway Observations for Savannah International...

CITY           SKY/WX    TMP DP  RH WIND       PRES   REMARKS
Savannah Arpt  MOSUNNY   82  67  60 S6        30.07R
Atlanta        CLOUDY    73  69  87 S8        30.04R
Charlotte      PTSUNNY   74  66  76 SW6       30.07R
Dallas DFW     CLOUDY    73  65  75 SW13      29.61R
Houston Bush   PTSUNNY   79  71  76 S21G28    29.68R
Wash National  SUNNY     76  61  59 N8        30.03S
Wash Dulles    MOSUNNY   72  58  61 NW3       30.03S
Baltimore      MOSUNNY   75  59  57 W6        30.02R
Philadelphia   MOSUNNY   73  61  65 SW8       30.00R
Newark         PTSUNNY   68  61  78 VRB6      29.98R
Laguardia      PTSUNNY   66  60  81 VRB5      29.98R HAZE
J F K          PTSUNNY   67  60  78 CALM      29.99R HAZE
Boston         CLOUDY    61  59  93 SW8       29.94F
Pittsburg      MOSUNNY   58  48  69 SW5       30.07R
Akron          CLOUDY    54  43  66 SW12      30.05S
Cleveland      PTSUNNY   55  41  59 S9        30.06R
Cincinnati     CLOUDY    54  47  77 SE9       30.01F
Columbus       PTSUNNY   57  47  69 SE5       30.04R
Detroit        MOSUNNY   54  41  61 S12       30.01R
Chicago O`Hare PTSUNNY   48  34  58 CALM      29.94S
Minneapolis    MOSUNNY   39  26  59 NW13      29.89S WCI  31
Indianapolis   CLOUDY    51  45  79 SE13      29.97F
Toronto Canada PTSUNNY   55  39  54 SW15      29.98R

$$




USA.gov is the U.S. government's official web portal to all federal, state and local government web resources and services.